www.pogodaiklimat.ru

Погода и климат >> Архив погоды >> Бразилия >> Риу-Гранди-ду-Сул >> Вакария


ПОГОДА в Вакарии

  • Прогноз погоды в Вакарии
  • Монитор погоды в Вакарии

АРХИВ ПОГОДЫ в Вакарии

Время (UTC), дата Ветер
(напр.,м/с)
 
Видим.   Явления Облачность Т
(С)
Тd
(С)
f
(%)
Тe
(С)
Тes
(С)
Комфортность P
(гПа)
Po
(гПа)
Тmin
(С)
Tmax
(С)
R
(мм)
R24
(мм)
S
(см)
22 13.09 В 2
{3}
н/о н/о +12.9 +10.8 87 +12 +12 1022.4 910.5
23 13.09 В 2
{4}
н/о н/о +12.6 +10.9 89 +12 +12 1022.7 910.7
00 14.09 В 2
{4}
н/о н/о +12.6 +11.0 90 +12 +12 1023.0 910.9
01 14.09 СВ 2
{3}
н/о н/о +11.8 +11.2 96 +11 +11 1023.1 910.7
02 14.09 СВ 2
{4}
н/о н/о +11.3 +10.2 93 +10 +10 1023.2 910.6
03 14.09 СВ 2
{4}
н/о н/о +12.0 +10.3 89 +11 +11 1022.8 910.5
04 14.09 СВ 3
{4}
н/о н/о +12.0 +10.4 90 +11 +11 1021.7 909.6
05 14.09 СВ 3
{6}
н/о н/о +11.9 +10.5 91 +10 +10 1020.8 908.7
06 14.09 СВ 3
{6}
н/о н/о +12.0 +10.8 92 +10 +10 1019.9 908.0
07 14.09 СВ 4
{6}
н/о н/о +12.0 +11.0 94 +10 +10 1019.4 907.5
08 14.09 СВ 3
{6}
н/о н/о +12.0 +11.1 94 +10 +10 1020.1 908.1
09 14.09 СВ 3
{5}
н/о н/о +12.1 +11.0 93 +11 +11 1020.7 908.7
10 14.09 СВ 3
{5}
н/о н/о +12.2 +11.0 92 +10 +10 1021.1 909.1
11 14.09 СВ 4
{6}
н/о н/о +12.6 +11.1 91 +11 +11 1021.4 909.5
12 14.09 СВ 4
{6}
н/о н/о +13.7 +11.8 88 +12 +12 1021.1 909.7
13 14.09 СВ 4
{6}
н/о н/о +15.4 +12.7 84 +15 +15 1020.7 909.9
14 14.09 СВ 4
{6}
н/о н/о +17.1 +13.4 79 +17 +17 1019.2 909.2
15 14.09 С 3
{5}
н/о н/о +17.9 +13.4 75 +18 +18 1018.0 908.4
16 14.09 С 3
{5}
н/о н/о +19.4 +14.1 71 +21 +21 комфорт 1016.5 907.6
17 14.09
{5}
н/о н/о +19.9 +14.3 70 1015.9 907.2
18 14.09 С 3
{4}
н/о н/о +18.3 +13.8 75 +19 +19 1016.4 907.1
19 14.09 С 2
{4}
н/о н/о +17.4 +14.0 80 +18 +18 1017.2 907.5
20 14.09 СВ 2
{4}
н/о н/о +15.8 +13.7 87 +16 +16 1017.5 907.2
21 14.09 С 3
{4}
н/о н/о +15.0 +13.6 91 +14 +14 1017.6 907.0
22 14.09 СВ 3
{4}
н/о н/о +14.1 +13.4 96 +13 +13 1018.1 907.1
23 14.09 СВ 2
{4}
н/о н/о +13.5 +13.2 98 +13 +13 1018.9 907.6
01 15.09 С 3
{5}
н/о н/о +13.2 +13.0 99 +12 +12 1019.3 907.9
02 15.09 С 3
{5}
н/о н/о +13.2 +13.0 99 +12 +12 1018.8 907.4
03 15.09 С 3
{5}
н/о н/о +13.0 +12.8 99 +11 +11 1018.5 907.1
04 15.09 С 3
{5}
н/о н/о +13.1 +12.8 98 +12 +12 1017.9 906.6
05 15.09 С 3
{5}
н/о н/о +12.9 +12.8 99 +11 +11 1017.7 906.3
06 15.09 СВ 3
{5}
н/о н/о +12.8 +12.7 99 +11 +11 1017.1 905.8
07 15.09 С 3
{5}
н/о н/о +12.9 +12.9 100 +11 +11 1016.9 905.6
08 15.09 С 3
{5}
н/о н/о +12.8 +12.8 100 +11 +11 1017.0 905.7
09 15.09 С 3
{5}
н/о н/о +12.6 +12.6 100 +11 +11 1017.6 906.1
10 15.09 СВ 3
{4}
н/о н/о +12.7 +12.7 100 +11 +11 1018.2 906.7
12 15.09 СВ 4
{5}
н/о н/о +17.0 +14.2 84 +17 +17 1016.8 907.0
13 15.09 С 3
{5}
н/о н/о +20.3 +14.9 71 +23 +23 комфорт 1015.1 906.7
14 15.09
{5}
н/о н/о +23.4 +14.4 57 1013.5 906.3
15 15.09 С 3
{5}
н/о н/о +25.6 +14.8 51 +28 +28 жарко 1012.2 905.9
16 15.09
{5}
н/о н/о +27.3 +14.9 47 1010.9 905.3
17 15.09 С 3
{5}
н/о н/о +28.0 +14.3 43 +30 +30 жарко 1010.3 905.0
18 15.09 С 3
{5}
н/о н/о +27.8 +14.1 43 +30 +30 жарко 1009.9 904.6
19 15.09 С 2
{5}
н/о н/о +28.0 +15.6 47 +31 +31 душно 1009.6 904.4
20 15.09 С 2
{4}
н/о н/о +26.5 +16.2 53 +30 +30 душно 1010.2 904.4
21 15.09 СВ 2
{3}
н/о н/о +23.9 +16.9 65 +28 +28 душно 1011.3 904.5
22 15.09 СВ 2
{3}
н/о н/о +21.9 +16.5 71 +26 +26 душно 1012.2 904.6
23 15.09 СВ 2
{3}
н/о н/о +20.2 +16.4 79 +24 +24 комфорт 1013.6 905.3
00 16.09 СВ 2
{3}
н/о н/о +18.9 +16.3 85 +21 +21 комфорт 1014.8 905.9
01 16.09 СВ 2
{3}
н/о н/о +18.3 +15.7 85 +19 +19 1015.0 905.9
02 16.09 С 2
{3}
н/о н/о +17.6 +15.4 87 +18 +18 1015.2 905.8
03 16.09 С 2
{3}
н/о н/о +17.5 +15.4 87 +18 +18 1015.1 905.7
04 16.09 С 2
{3}
н/о н/о +17.4 +15.3 87 +18 +18 1014.8 905.4
05 16.09 С 2
{3}
н/о н/о +17.6 +15.4 87 +18 +18 1014.3 905.0
06 16.09 С 2
{3}
н/о н/о +16.8 +15.1 90 +17 +17 1014.2 904.6
07 16.09 СВ 2
{3}
н/о н/о +16.0 +15.3 96 +16 +16 1013.9 904.1
08 16.09 СВ 2
{3}
н/о н/о +15.4 +15.1 98 +15 +15 1014.1 904.0
09 16.09 СВ 2
{3}
н/о н/о +15.4 +14.6 95 +15 +15 1014.2 904.1
10 16.09 СВ 2
{3}
н/о н/о +15.9 +14.6 92 +16 +16 1014.8 904.8
11 16.09 С 2
{4}
н/о н/о +18.6 +16.2 86 +20 +20 1013.8 904.9
12 16.09 С 3
{5}
н/о н/о +21.9 +16.8 73 +26 +26 душно 1013.1 905.4
13 16.09 СЗ 3
{5}
н/о н/о +24.7 +16.2 59 +28 +28 душно 1012.0 905.4
14 16.09 СЗ 4
{6}
н/о н/о +27.6 +14.9 46 +30 +30 жарко 1010.7 905.2
16 16.09 СЗ 5
{7}
н/о н/о +30.0 +12.9 35 +31 +31 жарко 1008.8 904.3
17 16.09 СЗ 5
{8}
н/о н/о +30.4 +12.0 32 +31 +31 жарко 1007.8 903.5
18 16.09 СЗ 4
{7}
н/о н/о +29.9 +12.4 34 +31 +31 жарко 1007.3 902.9
19 16.09 СЗ 3
{6}
н/о н/о +28.7 +13.5 39 +30 +30 жарко 1007.6 902.8
20 16.09 СЗ 2
{4}
н/о н/о +28.0 +13.5 41 +30 +30 жарко 1008.1 903.0
21 16.09 СЗ 2
{3}
н/о н/о +24.4 +14.2 53 +27 +27 жарко 1009.9 903.4
22 16.09 ЮЗ 1
{3}
н/о н/о +23.6 +15.7 61 +27 +27 жарко 1010.8 904.0
23 16.09 Ю 1
{3}
н/о н/о +21.8 +16.2 70 +26 +26 душно 1011.6 904.1
00 17.09 Ю 1
{2}
н/о н/о +19.9 +16.0 78 +24 +24 комфорт 1012.8 904.5
01 17.09 Ю 1
{2}
н/о н/о +18.9 +16.2 84 +22 +22 комфорт 1013.4 904.7
02 17.09 Ю 1
{2}
н/о н/о +17.5 +15.7 89 +19 +19 1014.2 904.9
03 17.09 Ю 1
{2}
н/о н/о +16.3 +15.8 97 +18 +18 1014.6 904.8
04 17.09 Ю 1
{1}
н/о н/о +15.7 +15.7 100 +17 +17 1013.9 904.0
05 17.09 Ю 1
{2}
н/о н/о +15.7 +15.7 100 +17 +17 1013.4 903.5
06 17.09 Ю 1
{3}
н/о н/о +14.7 +14.7 100 +15 +15 1013.6 903.3
07 17.09 Ю 1
{3}
н/о н/о +14.3 +14.3 100 +15 +15 1012.8 902.5
08 17.09 Ю 1
{2}
н/о н/о +14.7 +14.7 100 +16 +16 1012.8 902.6
09 17.09 Ю 2
{7}
н/о н/о +13.5 +13.5 100 +13 +13 1014.3 903.5
10 17.09 ЮВ 1
{4}
н/о н/о +13.3 +13.3 100 +14 +14 1014.2 903.4 0.2
11 17.09 С 1
{2}
н/о н/о +13.6 +13.6 100 +14 +14 1016.5 905.5 2
12 17.09 ЮВ 1
{2}
н/о н/о +14.0 +14.0 100 +14 +14 1014.3 903.7 2
13 17.09 СВ 2
{2}
н/о н/о +16.9 +16.9 100 +17 +17 1011.8 902.5
14 17.09 Ю 1
{2}
н/о н/о +19.8 +17.5 87 +24 +24 комфорт 1010.4 902.3
15 17.09 Ю 1
{2}
н/о н/о +17.5 +16.6 94 +19 +19 1010.4 901.5
16 17.09 Ю 1
{4}
н/о н/о +14.6 +14.6 100 +15 +15 1012.5 902.3 0.6
17 17.09 Ю 1
{2}
н/о н/о +14.7 +14.7 100 +15 +15 1011.3 901.3 1
18 17.09 Ю 1
{2}
н/о н/о +15.5 +15.5 100 +16 +16 1008.6 899.2 1
20 17.09 Ю 1
{3}
н/о н/о +15.0 +15.0 100 +15 +15 1008.6 899.0
21 17.09 Ю 1
{3}
н/о н/о +14.2 +14.2 100 +15 +15 1009.6 899.6 0.4
22 17.09 В 1
{2}
н/о н/о +14.3 +14.3 100 +15 +15 1009.5 899.5
23 17.09 Ю 1
{2}
н/о н/о +14.3 +14.3 100 +15 +15 1009.9 899.9
00 18.09 Ю 1
{1}
н/о н/о +14.0 +14.0 100 +15 +15 1009.9 899.8
01 18.09 Ю 1
{2}
н/о н/о +13.8 +13.8 100 +15 +15 1010.2 900.0
02 18.09 штиль 0
{2}
н/о н/о +13.8 +13.8 100 +13 +13 1010.3 900.1 0.4
03 18.09 С 1
{2}
н/о н/о +14.8 +14.8 100 +16 +16 1009.9 900.1 0.2
04 18.09 С 1
{3}
н/о н/о +15.1 +15.1 100 +16 +16 1008.8 899.2
05 18.09 С 1
{2}
н/о н/о +15.5 +15.5 100 +17 +17 1007.8 898.5 0.2
07 18.09 С 1
{3}
н/о н/о +16.1 +16.1 100 +17 +17 1006.8 897.8
08 18.09 ЮЗ 1
{2}
н/о н/о +15.7 +15.7 100 +17 +17 1008.0 898.7 0.2
09 18.09 Ю 1
{4}
н/о н/о +13.7 +15 +15 1008.9 898.8 5
10 18.09 ЮЗ 2
{7}
н/о н/о +12.7 +13 +13 1011.9 901.1 2
11 18.09 ЮЗ 2
{5}
н/о н/о +12.0 +12 +12 1013.2 902.0
12 18.09 В 1
{4}
н/о н/о +12.6 +14 +14 1011.7 900.9
13 18.09 СВ 1
{3}
н/о н/о +12.6 +12.6 100 +12 +12 1012.8 901.9 1
14 18.09 Ю 1
{4}
н/о н/о +12.4 +12.4 100 +13 +13 1012.8 901.8 0.6
15 18.09 С 1
{2}
н/о н/о +13.2 +12.3 94 +14 +14 1011.9 901.3
16 18.09 СЗ 2
{4}
н/о н/о +13.3 +12.5 95 +12 +12 1013.0 902.3 0.4
18 18.09 С 2
{2}
н/о н/о +13.6 +13.6 100 +13 +13 1009.3 899.1
19 18.09 З 1
{2}
н/о н/о +13.4 +13.3 99 +14 +14 1010.6 900.2
20 18.09 СВ 3
{4}
н/о н/о +13.8 +13.5 98 +13 +13 1008.0 898.0
22 18.09 ЮЗ 1
{2}
н/о н/о +11.6 +11.6 100 +12 +12 1011.7 900.5
23 18.09 Ю 1
{2}
н/о н/о +11.6 +11.6 100 +12 +12 1012.2 901.0
00 19.09 В 1
{1}
н/о н/о +11.7 +11.7 100 +12 +12 1012.8 901.5
01 19.09 С 1
{2}
н/о н/о +11.6 +11.6 100 +12 +12 1012.8 901.5
02 19.09 СВ 1
{1}
н/о н/о +11.8 +11.8 100 +12 +12 1012.5 901.3
03 19.09 В 1
{1}
н/о н/о +11.7 +11.7 100 +12 +12 1011.9 900.7
04 19.09 С 1
{2}
н/о н/о +11.9 +11.9 100 +12 +12 1011.4 900.4
05 19.09 СВ 2
{3}
н/о н/о +11.7 +11.7 100 +11 +11 1010.9 899.8
06 19.09 СВ 2
{3}
н/о н/о +11.9 +11.9 100 +11 +11 1010.1 899.2
07 19.09 СВ 2
{3}
н/о н/о +12.5 +12.5 100 +12 +12 1009.4 898.8
08 19.09 СВ 2
{4}
н/о н/о +13.0 +13.0 100 +12 +12 1009.2 898.8
09 19.09 С 3
{4}
н/о н/о +13.5 +13.5 100 +12 +12 1009.3 899.1
10 19.09 С 3
{7}
н/о н/о +14.0 +14.0 100 +13 +13 1009.6 899.5
11 19.09 С 3
{4}
н/о н/о +14.6 +14.6 100 +14 +14 1009.7 899.8
13 19.09 С 3
{4}
н/о н/о +17.3 +15.1 87 +17 +17 1008.5 899.7
14 19.09 С 3
{5}
н/о н/о +19.8 +15.8 78 +22 +22 комфорт 1006.9 899.2
17 19.09 СЗ 3
{5}
н/о н/о +21.9 +15.6 67 +26 +26 душно 1003.3 896.7
18 19.09 СЗ 2
{4}
н/о н/о +20.8 +16.1 74 +25 +25 комфорт 1003.1 896.1
19 19.09 СЗ 3
{9}
н/о н/о +17.7 +16.4 92 +18 +18 1005.3 897.0 3
20 19.09 СЗ 2
{9}
н/о н/о +17.1 +17.0 99 +17 +17 1006.1 897.5 2
21 19.09 З 4
{8}
н/о н/о +16.7 +16.7 100 +16 +16 1006.6 897.8 2
22 19.09 З 1
{6}
н/о н/о +16.5 +16.5 100 +17 +17 1007.1 898.2 2
23 19.09 З 1
{7}
н/о н/о +15.6 +15.5 99 +16 +16 1008.3 898.9 3
00 20.09 З 1
{6}
н/о н/о +15.0 +15.0 100 +15 +15 1009.6 899.9 1
01 20.09 ЮЗ 0
{4}
н/о н/о +14.8 +14.8 100 +14 +14 1010.5 900.6 0.4
02 20.09 Ю 1
{4}
н/о н/о +13.8 +13.8 100 +15 +15 1011.6 901.2
03 20.09 штиль 0
{1}
н/о н/о +12.7 +12.7 100 +12 +12 1012.0 901.2
05 20.09 Ю 1
{1}
н/о н/о +11.8 +11.8 100 +12 +12 1012.5 901.3
06 20.09 Ю 1
{2}
н/о н/о +12.1 +12.1 100 +13 +13 1012.6 901.5
07 20.09 ЮВ 1
{2}
н/о н/о +11.0 +11.0 100 +11 +11 1012.8 901.3 0.2
08 20.09 ЮВ 1
{2}
н/о н/о +12.0 +12.0 100 +13 +13 1013.2 902.0
09 20.09 Ю 1
{2}
н/о н/о +12.0 +12.0 100 +12 +12 1013.8 902.5
10 20.09 Ю 1
{3}
н/о н/о +11.3 +11.3 100 +12 +12 1014.3 902.7
11 20.09 Ю 1
{2}
н/о н/о +12.6 +9.6 82 +13 +13 1015.1 903.9
12 20.09 Ю 2
{3}
н/о н/о +13.4 +9.7 78 +13 +13 1015.8 904.8
17 20.09 Ю 2
{4}
н/о н/о +11.4 +9.8 90 +11 +11 1016.9 905.1
18 20.09 Ю 2
{3}
н/о н/о +11.5 +9.2 86 +11 +11 1017.5 905.6
19 20.09 ЮВ 1
{3}
н/о н/о +11.5 +8.8 83 +11 +11 1017.9 906.0
22 20.09 Ю 1
{2}
н/о н/о +9.6 +8.4 92 +10 +10 1019.9 907.1

 

Местоположение метеостанции Вакария (Риу-Гранди-ду-Сул, Бразилия): широта -28.51 долгота -50.88 высота над уровнем моря 988 м.

В архиве по умолчанию представлена погода в Вакарии за последнюю неделю. Архивные данные за месяц целиком и за предыдущие месяцы, начиная с января 2011 года, Вы можете получить, выбрав интересующий диапазон дат из раскрывающегося списка и нажав кнопку "Ввод!".


*Определитесь, кто Вы:
робот инопланетянин человек

Внимание! Время в таблицах - всемирное. Для получения местного времени необходимо прибавить поправку, которая равна -3 ч.

Смотрите также архив погоды в соседних городах и на ближайших метеорологических станциях:

Погода в Бон-Жезусе (Риу-Гранди-ду-Сул, Бразилия) (47 км)
Погода в Лагоа Вермельха (Риу-Гранди-ду-Сул, Бразилия) (70 км)
Погода в Сан-Хосе-дос-Аусенте (Риу-Гранди-ду-Сул, Бразилия) (84 км)
Погода в Лажисе (Санта-Катарина, Бразилия) (95 км)
Погода в Канеле (Риу-Гранди-ду-Сул, Бразилия) (96 км)
Погода в Сан-Хоакиме (Санта-Катарина, Бразилия) (96 км)
Погода в Бенту-Гонсалвисе (Риу-Гранди-ду-Сул, Бразилия) (98 км)
Погода в Кампос-Новосе (Санта-Катарина, Бразилия) (127 км)
Погода в Кампу-Боне (Риу-Гранди-ду-Сул, Бразилия) (130 км)
Погода в Теутонии (Риу-Гранди-ду-Сул, Бразилия) (139 км)

Пояснения к столбцам:

Ветер - указаны скорость ветра в м/с - средняя за 10 мин, порывы в срок и между сроками (в фигурных скобках) и направление, откуда дует ветер: С - северный, СВ - северо-восточный, В - восточный, ЮВ - юго-восточный, Ю - южный, ЮЗ - юго-западный, З - западный, СЗ - северо-западный.
Видимость - горизонтальная дальность видимости в метрах или километрах. При видимости от 1 до 10 км при отсутствии осадков обычно наблюдается дымка, при ухудшении видимости до 1 км и менее - туман. В сухую погоду видимость может ухудшаться дымом, пылью или мглою.
Явления - указаны атмосферные явления, наблюдавшиеся в срок или в последний час перед сроком; фигурными скобками обозначены явления, наблюдавшиеся между сроками (за 1-3 часа до срока); квадратными скобками обозначены град или гололедные отложения с указанием их диаметра в мм.
Облачность - указаны через наклонную черту общая и нижняя облачность в баллах и высота нижней границы облаков в метрах; квадратными скобками обозначены формы облаков: Ci - перистые, Cs - перисто-слоистые, Cc - перисто-кучевые, Ac - высококучевые, As - высокослоистые, Sc - слоисто-кучевые, Ns - слоисто-дождевые, Cu - кучевые, Cb - кучево-дождевые. Подробнее классификацию облаков см. в Атласе облаков (PDF).
T - Температура воздуха - температура, измеренная на высоте 2 м над землей.
Td - Температура точки росы - температура, при понижении до которой содержащийся в воздухе водяной пар достигнет насыщения.
f - Относительная влажность воздуха - влажноcть воздуха, измеренная на высоте 2 м над землей.
Te - Эффективная температура - температура, которую ощущает одетый по сезону человек в тени. Характеристика душности погоды. При расчете учитывается влияние влажности воздуха и скорости ветра на теплоощущения человека.
Tes - Эффективная температура на солнце - температура, которую ощущает человек, с поправкой на солнечный нагрев. Характеристика знойности погоды. Зависит от высоты солнца над горизонтом, облачности и скорости ветра. Ночью, в пасмурную погоду, а также при ветре 12 м/с и более поправка равна нулю.
P - Атмосферное давление - приведенное к уровню моря атмосферное давление.
Po - Атмосферное давление - измеренное на уровне метеостанции атмосферное давление.
Tmin - Минимальная температура - минимум температуры воздуха на высоте 2 м над землей.
Tmax - Максимальная температура - максимум температуры воздуха на высоте 2 м над землей.
R - Количество осадков - Количество выпавших осадков за период времени, мм. При наведении курсора мыши на число - период времени, за который выпало указанное количество осадков.
R24 - Количество осадков - Количество выпавших осадков за 24 часа, мм.
S - Снежный покров - Высота снежного покрова, см. При наведении курсора мыши на число - состояние снежного покрова и степень покрытия местности в баллах.